QPF
0.02 0.02 0.01 0.01 0.01 0.01 0.01 0.01 0.01 0.01 0.02 0.02 0.02 0.01 0.01 0.01 0.01 0.02 0.02 0.03 0.05 0.06 0.07 0.06 0.05 0.06 0.05 0.05 0.04 0.04 0.04 0.04 0.04 0.03 0.02 0.02 0.03 0.05 0.04 0.03 0.02 0.02 0.01
0.03 0.02 0.01 0.01 0.01 0.01 0.00 0.00 0.00 0.01 0.01 0.02 0.02 0.02 0.01 0.01 0.01 0.01 0.01 0.02 0.03 0.05 0.07 0.07 0.06 0.05 0.04 0.04 0.04 0.03 0.02 0.02 0.02 0.02 0.02 0.02 0.02 0.04 0.04 0.03 0.02 0.02 0.02
0.02 0.02 0.01 0.01 0.01 0.00 0.00 0.00 0.00 0.01 0.01 0.01 0.01 0.01 0.01 0.01 0.01 0.01 0.01 0.01 0.02 0.03 0.05 0.06 0.05 0.05 0.04 0.03 0.04 0.03 0.02 0.01 0.01 0.01 0.02 0.01 0.02 0.03 0.04 0.04 0.03 0.02 0.02
0.02 0.01 0.01 0.01 0.01 0.01 0.01 0.01 0.01 0.01 0.01 0.01 0.01 0.01 0.01 0.01 0.01 0.01 0.01 0.01 0.02 0.02 0.02 0.03 0.04 0.05 0.04 0.03 0.03 0.03 0.02 0.02 0.01 0.02 0.02 0.02 0.02 0.03 0.04 0.03 0.03 0.03 0.02
0.02 0.01 0.01 0.01 0.01 0.01 0.01 0.01 0.01 0.01 0.01 0.01 0.01 0.01 0.01 0.01 0.01 0.01 0.01 0.01 0.01 0.01 0.01 0.01 0.02 0.03 0.04 0.03 0.03 0.03 0.03 0.03 0.02 0.02 0.03 0.03 0.03 0.03 0.04 0.03 0.03 0.03 0.03
0.02 0.02 0.01 0.01 0.01 0.01 0.01 0.01 0.01 0.01 0.01 0.01 0.01 0.01 0.01 0.01 0.01 0.01 0.01 0.01 0.01 0.01 0.01 0.01 0.02 0.02 0.02 0.02 0.03 0.03 0.04 0.04 0.03 0.02 0.02 0.03 0.03 0.03 0.04 0.04 0.03 0.03 0.03
0.02 0.02 0.01 0.01 0.01 0.01 0.01 0.01 0.01 0.01 0.01 0.01 0.01 0.01 0.01 0.01 0.01 0.01 0.01 0.01 0.01 0.01 0.01 0.01 0.01 0.01 0.01 0.01 0.01 0.02 0.02 0.03 0.02 0.02 0.02 0.02 0.02 0.02 0.03 0.03 0.03 0.02 0.03
0.03 0.02 0.02 0.01 0.01 0.01 0.01 0.01 0.01 0.02 0.02 0.02 0.01 0.01 0.01 0.01 0.01 0.01 0.01 0.01 0.01 0.01 0.01 0.01 0.01 0.01 0.01 0.01 0.01 0.01 0.01 0.01 0.01 0.01 0.01 0.01 0.01 0.01 0.01 0.02 0.02 0.02 0.02
0.03 0.03 0.02 0.02 0.02 0.01 0.01 0.01 0.02 0.02 0.03 0.03 0.02 0.02 0.02 0.01 0.01 0.01 0.01 0.01 0.01 0.01 0.01 0.01 0.02 0.01 0.02 0.02 0.02 0.02 0.01 0.01 0.01 0.01 0.01 0.01 0.01 0.01 0.01 0.01 0.02 0.02 0.02
0.02 0.02 0.02 0.02 0.02 0.01 0.01 0.02 0.02 0.02 0.03 0.03 0.03 0.02 0.02 0.02 0.02 0.02 0.02 0.01 0.02 0.02 0.02 0.02 0.02 0.02 0.03 0.03 0.03 0.03 0.03 0.02 0.01 0.01 0.01 0.01 0.01 0.01 0.01 0.01 0.02 0.02 0.01
0.03 0.02 0.02 0.02 0.02 0.02 0.02 0.02 0.02 0.02 0.02 0.02 0.02 0.02 0.02 0.02 0.02 0.02 0.01 0.01 0.02 0.02 0.01 0.02 0.02 0.02 0.02 0.03 0.03 0.03 0.03 0.03 0.02 0.02 0.02 0.01 0.01 0.01 0.01 0.01 0.01 0.02 0.02
0.02 0.02 0.02 0.01 0.01 0.01 0.02 0.02 0.02 0.02 0.02 0.02 0.02 0.02 0.03 0.02 0.02 0.02 0.01 0.01 0.02 0.02 0.02 0.02 0.02 0.02 0.02 0.02 0.03 0.03 0.03 0.03 0.02 0.02 0.02 0.01 0.01 0.01 0.01 0.01 0.01 0.01 0.01
0.01 0.01 0.01 0.01 0.01 0.01 0.01 0.01 0.02 0.02 0.02 0.03 0.03 0.02 0.02 0.02 0.03 0.03 0.02 0.02 0.02 0.02 0.01 0.01 0.01 0.01 0.01 0.02 0.02 0.02 0.02 0.01 0.01 0.01 0.01 0.01 0.01 0.01 0.01 0.01 0.01 0.01 0.01
0.01 0.01 0.01 0.01 0.01 0.01 0.02 0.02 0.02 0.02 0.02 0.02 0.02 0.03 0.03 0.02 0.02 0.02 0.02 0.02 0.02 0.02 0.02 0.01 0.01 0.01 0.01 0.01 0.01 0.01 0.01 0.01 0.01 0.01 0.01 0.01 0.01 0.01 0.01 0.01 0.01 0.01 0.02
0.01 0.00 0.01 0.01 0.01 0.01 0.01 0.01 0.02 0.02 0.02 0.02 0.02 0.02 0.02 0.02 0.02 0.02 0.02 0.02 0.02 0.02 0.02 0.02 0.02 0.01 0.01 0.01 0.00 0.00 0.00 0.01 0.01 0.01 0.01 0.01 0.01 0.01 0.01 0.01 0.02 0.02 0.02
0.01 0.01 0.01 0.01 0.01 0.01 0.00 0.01 0.01 0.02 0.02 0.02 0.02 0.02 0.02 0.02 0.02 0.02 0.01 0.01 0.01 0.02 0.02 0.02 0.02 0.01 0.01 0.01 0.01 0.00 0.00 0.01 0.01 0.01 0.01 0.01 0.01 0.02 0.02 0.02 0.02 0.03 0.02
0.01 0.01 0.01 0.01 0.01 0.01 0.01 0.01 0.01 0.00 0.01 0.01 0.01 0.01 0.01 0.01 0.01 0.01 0.01 0.02 0.02 0.02 0.02 0.02 0.01 0.01 0.01 0.01 0.01 0.01 0.01 0.01 0.01 0.01 0.01 0.01 0.02 0.02 0.03 0.03 0.03 0.03 0.03
0.01 0.01 0.01 0.01 0.01 0.01 0.01 0.01 0.01 0.01 0.01 0.01 0.01 0.01 0.01 0.01 0.01 0.02 0.02 0.02 0.02 0.02 0.01 0.01 0.01 0.01 0.01 0.01 0.01 0.01 0.01 0.01 0.01 0.01 0.01 0.01 0.02 0.02 0.03 0.03 0.03 0.03 0.03
0.01 0.01 0.01 0.01 0.01 0.01 0.01 0.01 0.01 0.01 0.01 0.01 0.01 0.01 0.01 0.01 0.02 0.02 0.02 0.02 0.02 0.02 0.01 0.01 0.01 0.01 0.01 0.01 0.01 0.01 0.01 0.01 0.01 0.01 0.01 0.02 0.02 0.02 0.03 0.03 0.03 0.03 0.03
0.01 0.01 0.01 0.01 0.01 0.01 0.01 0.01 0.01 0.01 0.01 0.01 0.01 0.01 0.01 0.02 0.02 0.02 0.03 0.02 0.02 0.02 0.02 0.02 0.01 0.01 0.01 0.01 0.01 0.01 0.01 0.01 0.01 0.01 0.01 0.02 0.02 0.02 0.03 0.03 0.03 0.03 0.03
0.01 0.01 0.01 0.01 0.02 0.02 0.02 0.02 0.02 0.02 0.02 0.02 0.02 0.02 0.02 0.03 0.03 0.03 0.03 0.03 0.03 0.03 0.02 0.02 0.02 0.02 0.01 0.01 0.02 0.02 0.02 0.01 0.01 0.02 0.02 0.02 0.02 0.02 0.03 0.03 0.03 0.03 0.04
0.02 0.01 0.02 0.02 0.02 0.02 0.02 0.02 0.02 0.02 0.02 0.02 0.02 0.02 0.02 0.02 0.03 0.03 0.03 0.03 0.03 0.03 0.03 0.03 0.03 0.02 0.02 0.02 0.02 0.02 0.02 0.02 0.02 0.02 0.02 0.02 0.02 0.02 0.03 0.03 0.03 0.03 0.03
0.02 0.02 0.02 0.02 0.02 0.02 0.02 0.02 0.02 0.02 0.02 0.02 0.02 0.02 0.02 0.02 0.03 0.03 0.03 0.03 0.03 0.03 0.03 0.03 0.03 0.03 0.03 0.03 0.03 0.04 0.04 0.03 0.03 0.03 0.03 0.03 0.03 0.02 0.03 0.03 0.03 0.03 0.03
0.02 0.02 0.02 0.02 0.02 0.02 0.01 0.01 0.01 0.01 0.01 0.01 0.01 0.02 0.02 0.02 0.03 0.03 0.03 0.03 0.03 0.03 0.03 0.03 0.04 0.04 0.04 0.03 0.04 0.04 0.04 0.05 0.04 0.03 0.03 0.02 0.02 0.02 0.02 0.02 0.02 0.02 0.02
0.02 0.02 0.02 0.02 0.01 0.01 0.01 0.01 0.01 0.01 0.01 0.01 0.01 0.01 0.02 0.02 0.02 0.03 0.03 0.03 0.03 0.03 0.03 0.03 0.04 0.04 0.04 0.04 0.04 0.04 0.05 0.05 0.04 0.04 0.03 0.03 0.03 0.02 0.02 0.02 0.02 0.02 0.02
0.02 0.02 0.01 0.01 0.01 0.01 0.01 0.01 0.01 0.01 0.01 0.01 0.01 0.01 0.01 0.01 0.02 0.02 0.02 0.02 0.02 0.03 0.03 0.03 0.03 0.04 0.04 0.04 0.03 0.04 0.04 0.04 0.03 0.03 0.04 0.04 0.03 0.02 0.02 0.02 0.02 0.02 0.02
MSLP
1023.66 1024.03 1024.29 1024.42 1024.44 1024.35 1024.21 1024.05 1023.89 1023.76 1023.65 1023.56 1023.46 1023.32 1023.11 1022.82 1022.46 1022.04 1021.60 1021.17 1020.80 1020.50 1020.28 1020.14 1020.04 1019.95 1019.83 1019.64 1019.35 1018.98 1018.53 1018.04 1017.56 1017.13 1016.80 1016.59 1016.51 1016.55 1016.68 1016.84 1017.00 1017.10 1017.12
1024.36 1024.72 1024.98 1025.11 1025.11 1025.00 1024.83 1024.62 1024.41 1024.22 1024.05 1023.90 1023.75 1023.56 1023.32 1023.01 1022.65 1022.23 1021.80 1021.39 1021.02 1020.73 1020.51 1020.37 1020.26 1020.17 1020.03 1019.83 1019.54 1019.16 1018.70 1018.19 1017.69 1017.24 1016.87 1016.62 1016.48 1016.45 1016.51 1016.60 1016.69 1016.75 1016.72
1025.19 1025.52 1025.76 1025.87 1025.85 1025.72 1025.51 1025.26 1025.00 1024.74 1024.51 1024.29 1024.08 1023.84 1023.55 1023.22 1022.84 1022.42 1022.00 1021.59 1021.23 1020.94 1020.72 1020.56 1020.44 1020.33 1020.18 1019.97 1019.68 1019.31 1018.86 1018.37 1017.88 1017.42 1017.03 1016.73 1016.54 1016.44 1016.41 1016.41 1016.42 1016.40 1016.32
1026.03 1026.31 1026.51 1026.59 1026.54 1026.39 1026.16 1025.87 1025.57 1025.26 1024.97 1024.68 1024.40 1024.10 1023.78 1023.41 1023.01 1022.59 1022.16 1021.75 1021.39 1021.09 1020.86 1020.68 1020.54 1020.41 1020.25 1020.04 1019.76 1019.41 1019.00 1018.55 1018.08 1017.64 1017.25 1016.92 1016.67 1016.50 1016.37 1016.28 1016.19 1016.08 1015.94
1026.76 1026.98 1027.12 1027.16 1027.08 1026.91 1026.66 1026.35 1026.02 1025.67 1025.33 1025.00 1024.66 1024.31 1023.94 1023.55 1023.12 1022.69 1022.26 1021.85 1021.48 1021.17 1020.92 1020.72 1020.55 1020.39 1020.22 1020.02 1019.76 1019.45 1019.08 1018.68 1018.27 1017.86 1017.48 1017.14 1016.85 1016.60 1016.38 1016.19 1016.00 1015.80 1015.59
1027.30 1027.43 1027.50 1027.48 1027.38 1027.18 1026.92 1026.60 1026.26 1025.90 1025.53 1025.16 1024.79 1024.40 1024.00 1023.58 1023.15 1022.71 1022.28 1021.87 1021.50 1021.18 1020.90 1020.68 1020.48 1020.30 1020.12 1019.92 1019.68 1019.41 1019.10 1018.76 1018.40 1018.04 1017.68 1017.34 1017.02 1016.71 1016.41 1016.12 1015.84 1015.55 1015.28
1027.59 1027.62 1027.61 1027.53 1027.38 1027.17 1026.91 1026.59 1026.25 1025.89 1025.52 1025.14 1024.75 1024.35 1023.93 1023.51 1023.07 1022.64 1022.22 1021.81 1021.44 1021.11 1020.82 1020.58 1020.35 1020.15 1019.96 1019.76 1019.54 1019.30 1019.04 1018.76 1018.46 1018.15 1017.82 1017.49 1017.14 1016.79 1016.43 1016.06 1015.69 1015.33 1014.99
1027.66 1027.58 1027.46 1027.32 1027.13 1026.90 1026.63 1026.33 1026.01 1025.67 1025.31 1024.93 1024.55 1024.15 1023.74 1023.32 1022.90 1022.48 1022.08 1021.69 1021.33 1021.00 1020.71 1020.44 1020.20 1019.97 1019.76 1019.56 1019.35 1019.14 1018.92 1018.68 1018.43 1018.16 1017.86 1017.54 1017.18 1016.80 1016.39 1015.97 1015.54 1015.12 1014.73
1027.56 1027.36 1027.15 1026.92 1026.69 1026.44 1026.17 1025.89 1025.59 1025.27 1024.94 1024.59 1024.22 1023.84 1023.45 1023.05 1022.65 1022.26 1021.88 1021.52 1021.18 1020.86 1020.56 1020.29 1020.03 1019.78 1019.55 1019.33 1019.12 1018.92 1018.72 1018.51 1018.29 1018.04 1017.77 1017.46 1017.11 1016.72 1016.29 1015.83 1015.36 1014.90 1014.47
1027.38 1027.06 1026.75 1026.45 1026.17 1025.90 1025.63 1025.36 1025.09 1024.80 1024.49 1024.17 1023.82 1023.46 1023.10 1022.73 1022.36 1022.00 1021.66 1021.32 1021.01 1020.70 1020.40 1020.12 1019.84 1019.58 1019.32 1019.08 1018.85 1018.64 1018.43 1018.23 1018.03 1017.80 1017.55 1017.25 1016.91 1016.52 1016.09 1015.62 1015.14 1014.66 1014.21
1027.18 1026.76 1026.37 1026.00 1025.67 1025.38 1025.11 1024.85 1024.59 1024.32 1024.04 1023.74 1023.41 1023.08 1022.73 1022.39 1022.05 1021.72 1021.41 1021.10 1020.80 1020.51 1020.21 1019.92 1019.63 1019.33 1019.05 1018.77 1018.52 1018.28 1018.06 1017.85 1017.64 1017.43 1017.19 1016.92 1016.60 1016.23 1015.81 1015.36 1014.88 1014.40 1013.94
1027.03 1026.53 1026.06 1025.64 1025.28 1024.96 1024.68 1024.41 1024.16 1023.90 1023.63 1023.34 1023.03 1022.71 1022.38 1022.05 1021.73 1021.42 1021.13 1020.84 1020.55 1020.27 1019.97 1019.67 1019.35 1019.03 1018.71 1018.40 1018.11 1017.84 1017.59 1017.36 1017.15 1016.94 1016.72 1016.47 1016.17 1015.84 1015.45 1015.03 1014.57 1014.11 1013.65
1026.94 1026.37 1025.86 1025.40 1025.00 1024.66 1024.36 1024.08 1023.82 1023.56 1023.28 1022.99 1022.68 1022.35 1022.03 1021.70 1021.39 1021.09 1020.80 1020.52 1020.24 1019.95 1019.65 1019.33 1018.99 1018.64 1018.29 1017.95 1017.62 1017.32 1017.04 1016.80 1016.58 1016.38 1016.17 1015.94 1015.68 1015.38 1015.04 1014.65 1014.23 1013.78 1013.33
1026.88 1026.29 1025.74 1025.26 1024.83 1024.46 1024.14 1023.84 1023.55 1023.27 1022.97 1022.66 1022.34 1022.00 1021.67 1021.34 1021.02 1020.71 1020.42 1020.13 1019.84 1019.55 1019.23 1018.89 1018.54 1018.17 1017.79 1017.42 1017.07 1016.74 1016.45 1016.20 1015.98 1015.78 1015.59 1015.39 1015.16 1014.90 1014.60 1014.25 1013.86 1013.43 1012.98
1026.83 1026.23 1025.68 1025.17 1024.72 1024.33 1023.96 1023.63 1023.31 1022.99 1022.66 1022.33 1021.98 1021.63 1021.28 1020.93 1020.60 1020.28 1019.98 1019.68 1019.37 1019.06 1018.73 1018.38 1018.01 1017.63 1017.23 1016.85 1016.49 1016.15 1015.86 1015.60 1015.38 1015.20 1015.03 1014.85 1014.66 1014.43 1014.16 1013.84 1013.46 1013.04 1012.59
1026.75 1026.16 1025.61 1025.09 1024.62 1024.19 1023.79 1023.41 1023.04 1022.68 1022.32 1021.95 1021.58 1021.21 1020.84 1020.48 1020.14 1019.81 1019.49 1019.17 1018.86 1018.53 1018.19 1017.83 1017.45 1017.07 1016.68 1016.29 1015.93 1015.60 1015.31 1015.07 1014.86 1014.68 1014.53 1014.37 1014.20 1013.99 1013.74 1013.42 1013.05 1012.63 1012.16
1026.61 1026.04 1025.49 1024.97 1024.47 1024.00 1023.56 1023.13 1022.72 1022.31 1021.91 1021.52 1021.13 1020.74 1020.37 1020.00 1019.65 1019.32 1018.99 1018.67 1018.34 1018.00 1017.66 1017.30 1016.92 1016.54 1016.16 1015.79 1015.45 1015.13 1014.86 1014.62 1014.42 1014.26 1014.10 1013.95 1013.78 1013.58 1013.32 1013.00 1012.62 1012.18 1011.69
1026.42 1025.87 1025.32 1024.78 1024.25 1023.75 1023.26 1022.78 1022.33 1021.88 1021.45 1021.04 1020.64 1020.25 1019.88 1019.52 1019.18 1018.85 1018.52 1018.19 1017.87 1017.53 1017.19 1016.83 1016.46 1016.10 1015.73 1015.38 1015.06 1014.76 1014.50 1014.27 1014.07 1013.90 1013.74 1013.57 1013.39 1013.16 1012.88 1012.54 1012.14 1011.67 1011.15
1026.18 1025.64 1025.08 1024.53 1023.98 1023.43 1022.90 1022.38 1021.89 1021.42 1020.97 1020.55 1020.15 1019.78 1019.42 1019.08 1018.75 1018.43 1018.12 1017.80 1017.47 1017.14 1016.80 1016.45 1016.10 1015.74 1015.39 1015.06 1014.74 1014.45 1014.19 1013.96 1013.75 1013.55 1013.37 1013.17 1012.95 1012.69 1012.38 1012.00 1011.57 1011.07 1010.52
1025.91 1025.37 1024.81 1024.24 1023.66 1023.09 1022.52 1021.97 1021.45 1020.96 1020.51 1020.09 1019.71 1019.35 1019.02 1018.71 1018.40 1018.10 1017.79 1017.48 1017.16 1016.83 1016.49 1016.15 1015.80 1015.45 1015.10 1014.77 1014.45 1014.15 1013.88 1013.62 1013.37 1013.14 1012.90 1012.66 1012.39 1012.08 1011.73 1011.32 1010.85 1010.34 1009.77
1025.62 1025.09 1024.53 1023.95 1023.35 1022.75 1022.16 1021.59 1021.06 1020.56 1020.11 1019.70 1019.34 1019.00 1018.69 1018.40 1018.11 1017.83 1017.53 1017.22 1016.90 1016.57 1016.23 1015.87 1015.51 1015.15 1014.80 1014.45 1014.11 1013.78 1013.46 1013.15 1012.86 1012.56 1012.26 1011.96 1011.63 1011.27 1010.87 1010.43 1009.95 1009.43 1008.87
1025.34 1024.81 1024.25 1023.66 1023.06 1022.45 1021.85 1021.27 1020.73 1020.24 1019.79 1019.39 1019.04 1018.72 1018.42 1018.14 1017.86 1017.58 1017.28 1016.97 1016.64 1016.29 1015.93 1015.55 1015.17 1014.78 1014.39 1014.01 1013.62 1013.24 1012.86 1012.49 1012.12 1011.75 1011.38 1011.00 1010.61 1010.20 1009.77 1009.31 1008.83 1008.32 1007.79
1025.05 1024.54 1023.99 1023.41 1022.81 1022.20 1021.61 1021.03 1020.49 1020.00 1019.55 1019.15 1018.80 1018.47 1018.17 1017.88 1017.60 1017.30 1016.98 1016.65 1016.29 1015.91 1015.52 1015.11 1014.69 1014.26 1013.83 1013.38 1012.94 1012.49 1012.03 1011.58 1011.12 1010.67 1010.22 1009.77 1009.32 1008.88 1008.42 1007.96 1007.49 1007.01 1006.53
1024.77 1024.28 1023.75 1023.19 1022.61 1022.01 1021.42 1020.85 1020.31 1019.81 1019.36 1018.94 1018.57 1018.22 1017.89 1017.57 1017.25 1016.92 1016.57 1016.19 1015.80 1015.39 1014.95 1014.51 1014.04 1013.56 1013.07 1012.57 1012.05 1011.52 1010.99 1010.45 1009.91 1009.38 1008.85 1008.34 1007.85 1007.37 1006.90 1006.45 1006.01 1005.58 1005.16
1024.49 1024.02 1023.52 1022.99 1022.43 1021.86 1021.28 1020.72 1020.17 1019.65 1019.17 1018.72 1018.31 1017.91 1017.54 1017.16 1016.79 1016.41 1016.01 1015.59 1015.16 1014.70 1014.23 1013.74 1013.24 1012.71 1012.17 1011.61 1011.03 1010.43 1009.82 1009.20 1008.59 1007.98 1007.39 1006.83 1006.30 1005.80 1005.33 1004.90 1004.50 1004.12 1003.77
1024.21 1023.77 1023.30 1022.80 1022.27 1021.72 1021.16 1020.59 1020.03 1019.48 1018.96 1018.46 1017.99 1017.53 1017.08 1016.64 1016.20 1015.76 1015.31 1014.85 1014.38 1013.90 1013.40 1012.88 1012.34 1011.79 1011.21 1010.60 1009.97 1009.32 1008.65 1007.97 1007.30 1006.64 1006.01 1005.41 1004.85 1004.35 1003.89 1003.48 1003.12 1002.79 1002.51
Thickness
5483 5485 5487 5488 5489 5491 5492 5494 5495 5497 5499 5500 5501 5502 5504 5504 5505 5507 5507 5507 5508 5507 5507 5508 5508 5508 5508 5508 5508 5508 5509 5510 5511 5511 5509 5508 5507 5506 5505 5504 5504 5503 5503
5471 5472 5474 5475 5477 5478 5480 5482 5484 5486 5488 5489 5490 5492 5493 5494 5495 5496 5497 5497 5498 5498 5498 5498 5498 5497 5498 5498 5498 5498 5498 5499 5499 5499 5498 5496 5495 5494 5493 5492 5491 5491 5491
5458 5460 5462 5463 5465 5467 5468 5470 5472 5474 5477 5478 5479 5481 5482 5483 5484 5486 5486 5487 5487 5488 5488 5488 5488 5487 5488 5488 5488 5487 5487 5486 5486 5486 5486 5484 5482 5481 5480 5480 5480 5479 5479
5446 5448 5450 5451 5453 5455 5456 5458 5461 5463 5465 5468 5469 5470 5472 5473 5474 5475 5475 5476 5476 5477 5477 5477 5477 5477 5478 5477 5476 5476 5475 5474 5473 5473 5473 5471 5469 5468 5467 5468 5469 5468 5468
5434 5435 5437 5439 5440 5442 5444 5446 5449 5451 5453 5455 5458 5459 5461 5462 5463 5464 5464 5465 5466 5466 5466 5466 5466 5466 5465 5465 5464 5464 5463 5463 5462 5461 5460 5459 5458 5456 5456 5457 5457 5457 5456
5421 5422 5424 5426 5429 5430 5432 5434 5437 5439 5441 5443 5445 5448 5450 5451 5451 5452 5453 5454 5454 5455 5455 5455 5455 5454 5453 5452 5452 5451 5451 5451 5451 5450 5451 5450 5449 5447 5446 5445 5444 5444 5446
5408 5410 5412 5414 5417 5418 5420 5422 5425 5427 5430 5432 5434 5436 5437 5439 5439 5440 5441 5442 5443 5443 5443 5443 5443 5442 5441 5441 5440 5439 5438 5437 5437 5439 5439 5439 5438 5437 5435 5434 5433 5433 5434
5396 5398 5400 5402 5404 5407 5409 5411 5413 5415 5417 5419 5421 5423 5425 5426 5426 5427 5428 5430 5431 5431 5431 5431 5431 5431 5430 5429 5429 5428 5428 5427 5426 5426 5427 5427 5425 5424 5423 5422 5421 5420 5419
5384 5386 5388 5390 5392 5395 5398 5400 5401 5403 5405 5407 5409 5411 5413 5414 5414 5415 5416 5418 5419 5419 5419 5419 5419 5419 5418 5417 5417 5418 5417 5417 5415 5414 5414 5413 5413 5412 5410 5410 5409 5408 5409
5372 5374 5376 5379 5381 5384 5386 5388 5390 5392 5394 5395 5397 5399 5401 5403 5403 5403 5404 5406 5407 5407 5407 5407 5407 5407 5406 5405 5406 5407 5408 5407 5406 5405 5403 5402 5402 5400 5399 5398 5397 5396 5397
5360 5362 5365 5368 5370 5372 5375 5377 5379 5381 5382 5384 5386 5388 5390 5391 5391 5392 5392 5394 5395 5395 5396 5396 5396 5395 5395 5394 5394 5395 5396 5396 5395 5394 5393 5392 5390 5389 5387 5386 5385 5385 5385
5349 5352 5354 5356 5359 5361 5363 5365 5367 5369 5371 5373 5374 5376 5377 5378 5379 5380 5381 5381 5382 5383 5384 5385 5384 5383 5383 5383 5384 5384 5384 5383 5384 5383 5382 5381 5379 5378 5377 5375 5374 5373 5373
5338 5341 5343 5345 5348 5350 5352 5354 5356 5358 5360 5361 5363 5364 5365 5366 5367 5368 5369 5369 5369 5371 5372 5372 5372 5372 5372 5372 5373 5372 5372 5372 5372 5372 5371 5370 5368 5367 5365 5364 5362 5361 5360
5328 5330 5333 5335 5337 5339 5340 5342 5345 5346 5348 5349 5350 5351 5352 5354 5355 5356 5357 5357 5358 5359 5360 5360 5360 5361 5361 5361 5362 5361 5361 5361 5361 5361 5360 5358 5356 5355 5354 5353 5351 5350 5349
5318 5320 5322 5324 5325 5327 5328 5330 5332 5334 5335 5336 5338 5339 5341 5343 5343 5344 5345 5346 5347 5348 5348 5350 5351 5351 5352 5352 5351 5351 5350 5350 5349 5349 5348 5346 5345 5344 5343 5341 5340 5339 5339
5308 5310 5311 5313 5314 5316 5318 5319 5320 5321 5323 5324 5325 5327 5329 5331 5332 5333 5334 5336 5337 5337 5338 5340 5341 5341 5341 5341 5340 5340 5340 5339 5338 5337 5336 5335 5334 5333 5332 5330 5329 5328 5328
5297 5299 5300 5302 5304 5305 5306 5308 5310 5311 5312 5313 5315 5316 5318 5320 5322 5323 5324 5326 5327 5328 5329 5330 5331 5331 5330 5330 5329 5328 5328 5327 5326 5325 5325 5324 5323 5322 5321 5320 5318 5318 5317
5286 5288 5289 5291 5293 5294 5295 5297 5298 5300 5302 5303 5304 5305 5307 5309 5311 5313 5314 5315 5317 5318 5319 5319 5320 5320 5320 5319 5318 5318 5317 5316 5315 5314 5314 5312 5311 5311 5310 5309 5308 5307 5306
5276 5278 5279 5281 5282 5284 5285 5286 5287 5288 5290 5292 5293 5295 5296 5298 5300 5301 5302 5304 5306 5307 5307 5308 5309 5309 5308 5308 5307 5307 5306 5305 5304 5304 5303 5302 5301 5300 5300 5299 5298 5296 5295
5266 5267 5269 5271 5273 5274 5275 5276 5277 5278 5279 5280 5281 5283 5285 5287 5289 5290 5291 5292 5293 5294 5295 5297 5298 5298 5297 5297 5297 5296 5295 5295 5294 5293 5293 5292 5291 5290 5289 5288 5287 5286 5285
5256 5257 5259 5261 5263 5264 5265 5266 5267 5268 5268 5269 5270 5271 5272 5274 5276 5278 5279 5280 5281 5282 5284 5285 5286 5286 5286 5286 5286 5286 5285 5285 5285 5284 5283 5282 5281 5280 5280 5279 5277 5276 5274
5246 5247 5249 5251 5252 5253 5254 5255 5256 5257 5258 5259 5259 5260 5261 5262 5264 5265 5267 5268 5270 5271 5272 5273 5275 5275 5276 5276 5276 5276 5276 5276 5275 5275 5274 5273 5272 5271 5270 5269 5268 5267 5265
5236 5237 5239 5240 5241 5242 5243 5244 5245 5246 5247 5248 5249 5250 5251 5252 5253 5254 5255 5257 5259 5260 5261 5263 5264 5265 5266 5266 5267 5267 5267 5268 5267 5267 5266 5265 5264 5263 5262 5261 5260 5258 5256
5226 5228 5229 5230 5231 5232 5233 5234 5235 5236 5237 5237 5238 5239 5240 5241 5242 5243 5244 5246 5247 5249 5251 5253 5254 5255 5256 5257 5258 5259 5259 5259 5259 5259 5258 5257 5256 5255 5254 5253 5251 5250 5248
5217 5218 5219 5220 5221 5222 5223 5224 5225 5226 5226 5227 5228 5229 5230 5231 5232 5233 5234 5235 5237 5239 5241 5243 5244 5246 5248 5249 5250 5251 5251 5251 5251 5251 5250 5249 5248 5247 5246 5245 5244 5242 5241
5207 5208 5209 5210 5211 5213 5214 5215 5215 5216 5217 5217 5218 5219 5220 5221 5222 5224 5225 5226 5227 5229 5231 5233 5235 5236 5238 5240 5241 5243 5243 5244 5244 5243 5243 5242 5241 5240 5239 5238 5237 5235 5234